Simultaneous Nadir Overpasses (SNOs) Predictions

Prediction of SNOs between GOES-17 and AQUA Satellite Orbit:

Table of predicted SNOs for the next 14.0 days since TLE Epoch: 9/21/2024
Index Date Time (GOES-17) GOES-17 Lat,Lon AQUA Lat,Lon Distance(km) Time Diff (sec)
1 09/21/2024 21:13:39 0.01,-104.70 0.21,-103.66 117.87 80
2 09/22/2024 09:33:30 -0.01,-104.70 0.81,-108.46 428.08 80
3 09/24/2024 09:13:12 0.01,-104.70 -0.10,-104.15 62.16 80
4 09/24/2024 21:33:12 -0.01,-104.69 -0.92,-108.99 488.66 80
5 09/26/2024 21:15:33 0.01,-104.69 0.03,-104.68 2.81 80
6 09/28/2024 21:00:32 0.02,-104.69 0.93,-100.35 493.67 80
7 09/29/2024 09:20:22 -0.02,-104.70 0.10,-105.15 51.16 80
8 10/01/2024 09:00:00 -0.01,-104.70 -0.83,-100.82 441.94 80
9 10/01/2024 21:19:59 0.01,-104.70 -0.18,-105.65 108.44 80
10 10/03/2024 21:04:55 -0.00,-104.70 0.73,-101.31 385.75 80
11 10/04/2024 09:24:44 0.00,-104.72 0.31,-106.11 158.04 80
